星链-34073 (STARLINK-34073)

导读 | 星芒AI

STARLINK-34073 是 SpaceX Starlink 卫星互联网项目中的一颗低轨卫星,属于第6批部署的星链卫星之一。该卫星于2022年发射,运行在约550公里高度的近地轨道,旨在为全球用户提供高速互联网服务。它采用先进的相控阵天线和激光通信技术,支持低延迟、高带宽的网络连接。作为星链星座的一部分,STARLINK-34073 有助于扩大 Starlink 在偏远和网络基础设施薄弱地区的覆盖范围。

基本信息
目录编号:
64606
目录名称:
STARLINK-34073
国际标识:
2025-137N
轨道中心:
EARTH
卫星名称:
星链-34073
卫星全名:
星链-34073 (STARLINK-34073)
卫星状态:
在轨 (已飞行128 天)
发射日期:
2025-06-25 UTC
国别 :
美国 (US)
星等 :
--
轨道信息
数据来源 国际轨道数据
星历时间: 2025-10-31T02:42:02+0800
9小时前
查看轨道信息
半长轴: 6825.171km
偏心率: 0.0001059
轨道倾角: 53.160°
近地点辐角 89.599°
升交点赤经 223.018°
平近点角 270.514°
近地点: 446.313km
远地点: 447.759km
周期: 93.525分钟
每日圈数: 15.396872
详细信息
固有亮度:
5
最大亮度:
2.5
卫星平台:
Starlink V1.0
覆盖范围:
全球
运营商:
太空探索技术公司
运营商所在国:
美国
制造商(研发单位):
太空探索技术公司
制造商所在国:
美国
使用方式:
暂无
卫星简介
Starlink 计划是 SpaceX 推出的全球卫星互联网项目,通过发射低轨道卫星,为全球尤其是偏远地区提供高速、低延迟的互联网服务。自 2019 年起,Starlink 已部署数千颗卫星,旨在缩小全球数字鸿沟,推动互联网普及。该项目还为军事、航空等行业提供通信支持,带来广泛经济效益。
2D轨道图
3D轨道图
轨道高度分析图
轨道倾角分析图
轨道综合分析图
查看轨道综合分析图